This is the latest recevied weather packets stored in our database for station/object K3HW. If no packets are shown the sender has not sent any weather packets the latest 1 day(s).
| Time | Temp. | Humidity | Pressure | Rain* | Wind** | Luminosity | Snow |
|---|---|---|---|---|---|---|---|
| 1778008452 | 27.78° C | 32% | 1012.8 hPa | 0 mm | 1.34 m/s, 186° | 185 W/m² | - |
| 1778008148 | 27.78° C | 35% | 1012.6 hPa | 0 mm | 1.34 m/s, 13° | 78 W/m² | - |
| 1778007843 | 27.78° C | 33% | 1012.6 hPa | 0 mm | 2.24 m/s, 173° | 87 W/m² | - |
| 1778007539 | 27.78° C | 38% | 1012.8 hPa | 0 mm | 1.79 m/s, 319° | 135 W/m² | - |
| 1778007236 | 27.22° C | 32% | 1013 hPa | 0 mm | 3.58 m/s, 196° | 106 W/m² | - |
| 1778006932 | 27.22° C | 36% | 1013.1 hPa | 0 mm | 2.24 m/s, 194° | 241 W/m² | - |
| 1778006629 | 27.22° C | 36% | 1013.1 hPa | 0 mm | 1.79 m/s, 7° | 455 W/m² | - |
| 1778006326 | 27.22° C | 34% | 1013.1 hPa | 0 mm | 1.34 m/s, 138° | 239 W/m² | - |
| 1778006023 | 27.22° C | 38% | 1013.2 hPa | 0 mm | 1.79 m/s, 229° | 315 W/m² | - |
| 1778005720 | 27.22° C | 35% | 1013.2 hPa | 0 mm | 1.79 m/s, 301° | 200 W/m² | - |
| 1778005416 | 27.22° C | 34% | 1013 hPa | 0 mm | 1.79 m/s, 217° | 283 W/m² | - |
| 1778005113 | 27.22° C | 38% | 1013 hPa | 0 mm | 0.89 m/s, 226° | 85 W/m² | - |
| 1778004811 | 27.22° C | 36% | 1013.4 hPa | 0 mm | 0.89 m/s, 227° | 146 W/m² | - |
| 1778004507 | 27.78° C | 36% | 1013.3 hPa | 0 mm | 2.68 m/s, 295° | 147 W/m² | - |
| 1778004204 | 27.22° C | 38% | 1013.4 hPa | 0 mm | 1.79 m/s, 165° | 117 W/m² | - |
| 1778003900 | 27.22° C | 38% | 1013.4 hPa | 0 mm | 1.79 m/s, 296° | 60 W/m² | - |
| 1778003597 | 27.22° C | 37% | 1013.5 hPa | 0 mm | 0.89 m/s, 62° | 208 W/m² | - |
| 1778003293 | 27.22° C | 37% | 1013.4 hPa | 0 mm | 1.34 m/s, 57° | 124 W/m² | - |
| 1778002991 | 27.22° C | 40% | 1013.5 hPa | 0 mm | 1.79 m/s, 195° | 58 W/m² | - |
| 1778002686 | 27.22° C | 41% | 1013.4 hPa | 0 mm | 0.89 m/s, 29° | 75 W/m² | - |
| 1778002383 | 27.22° C | 39% | 1013.3 hPa | 0 mm | 0.89 m/s, 62° | 139 W/m² | - |
| 1778002091 | 27.22° C | 40% | 1013.3 hPa | 0 mm | 2.68 m/s, 211° | 100 W/m² | - |
| 1778001777 | 27.22° C | 43% | 1013.5 hPa | 0 mm | 1.79 m/s, 337° | 76 W/m² | - |
| 1778001472 | 27.78° C | 42% | 1013.5 hPa | 0 mm | 1.79 m/s, 194° | 641 W/m² | - |
| 1778001169 | 27.22° C | 41% | 1013.5 hPa | 0 mm | 0.89 m/s, 161° | 558 W/m² | - |
* Rain latest hour (hover to see other rain measurements)
** Current wind speed in m/s (hover to see current wind gust speed)